Time,TemperatureF,DewpointF,PressureIn,WindDirection,WindDirectionDegrees,WindSpeedMPH,WindSpeedGustMPH,Humidity,HourlyPrecipIn,Conditions,Clouds,dailyrainin,SoftwareType,DateUTC
2016-09-26 00:05:00,69.0,62.0,29.97,North,4,0.0,4.0,79,-99.99,,,-99.99,,2016-09-26 04:05:00,
2016-09-26 00:14:00,69.0,63.0,29.97,North,4,0.0,0.0,80,-99.99,,,-99.99,,2016-09-26 04:14:00,
2016-09-26 00:24:00,69.0,63.0,29.96,North,4,0.0,0.0,81,-99.99,,,-99.99,,2016-09-26 04:24:00,
2016-09-26 01:10:00,69.0,63.0,29.96,North,4,0.0,10.0,81,-99.99,,,-99.99,,2016-09-26 05:10:00,
2016-09-26 01:15:00,69.0,63.0,29.96,North,4,7.0,7.0,81,-99.99,,,-99.99,,2016-09-26 05:15:00,
2016-09-26 01:28:00,69.0,63.0,29.96,North,4,2.0,8.0,82,-99.99,,,-99.99,,2016-09-26 05:28:00,
2016-09-26 01:35:00,70.0,64.0,29.96,North,7,8.0,11.0,81,-99.99,,,-99.99,,2016-09-26 05:35:00,
2016-09-26 01:47:00,70.0,64.0,29.96,North,6,1.0,13.0,82,-99.99,,,-99.99,,2016-09-26 05:47:00,
2016-09-26 01:56:00,70.0,66.0,29.95,North,4,0.0,-999.0,86,-99.99,,,-99.99,,2016-09-26 05:56:00,
2016-09-26 02:06:00,69.0,65.0,29.95,North,4,0.0,0.0,88,-99.99,,,-99.99,,2016-09-26 06:06:00,
2016-09-26 02:14:00,69.0,66.0,29.94,North,4,0.0,0.0,89,-99.99,,,-99.99,,2016-09-26 06:14:00,
2016-09-26 02:25:00,68.0,65.0,29.93,North,4,0.0,0.0,90,-99.99,,,-99.99,,2016-09-26 06:25:00,
2016-09-26 02:47:00,68.0,65.0,29.93,North,4,0.0,4.0,91,-99.99,,,-99.99,,2016-09-26 06:47:00,
2016-09-26 02:54:00,68.0,65.0,29.91,North,4,0.0,6.0,91,-99.99,,,-99.99,,2016-09-26 06:54:00,
2016-09-26 03:06:00,67.0,64.0,29.91,North,4,0.0,0.0,91,-99.99,,,-99.99,,2016-09-26 07:06:00,
2016-09-26 03:15:00,67.0,65.0,29.92,North,4,0.0,0.0,92,-99.99,,,-99.99,,2016-09-26 07:15:00,
2016-09-26 03:28:00,67.0,65.0,29.91,North,4,0.0,0.0,92,-99.99,,,-99.99,,2016-09-26 07:28:00,
2016-09-26 03:45:00,67.0,65.0,29.90,North,4,1.0,10.0,92,-99.99,,,-99.99,,2016-09-26 07:45:00,
2016-09-26 03:55:00,67.0,65.0,29.90,North,4,0.0,10.0,92,-99.99,,,-99.99,,2016-09-26 07:55:00,
2016-09-26 04:04:00,67.0,65.0,29.90,North,4,2.0,6.0,92,-99.99,,,-99.99,,2016-09-26 08:04:00,
2016-09-26 04:14:00,67.0,65.0,29.91,North,6,0.0,9.0,92,-99.99,,,-99.99,,2016-09-26 08:14:00,
2016-09-26 04:24:00,68.0,66.0,29.91,North,4,9.0,15.0,92,-99.99,,,-99.99,,2016-09-26 08:24:00,
2016-09-26 04:34:00,68.0,66.0,29.90,North,6,0.0,10.0,92,-99.99,,,-99.99,,2016-09-26 08:34:00,
2016-09-26 04:53:00,68.0,66.0,29.89,North,4,0.0,-999.0,93,-99.99,,,-99.99,,2016-09-26 08:53:00,
2016-09-26 05:04:00,68.0,66.0,29.89,North,4,0.0,6.0,93,-99.99,,,-99.99,,2016-09-26 09:04:00,
2016-09-26 05:13:00,68.0,66.0,29.88,North,6,0.0,6.0,93,-99.99,,,-99.99,,2016-09-26 09:13:00,
2016-09-26 05:24:00,68.0,66.0,29.88,North,4,0.0,8.0,94,-99.99,,,-99.99,,2016-09-26 09:24:00,
2016-09-26 05:34:00,67.0,65.0,29.88,North,4,0.0,7.0,94,-99.99,,,-99.99,,2016-09-26 09:34:00,
2016-09-26 05:46:00,67.0,65.0,29.88,North,6,0.0,9.0,94,-99.99,,,-99.99,,2016-09-26 09:46:00,
2016-09-26 06:14:00,67.0,66.0,29.88,North,4,2.0,9.0,95,-99.99,,,-99.99,,2016-09-26 10:14:00,
2016-09-26 06:37:00,68.0,67.0,29.90,North,6,28.0,28.0,95,-99.99,,,-99.99,,2016-09-26 10:37:00,
2016-09-26 06:57:00,61.0,59.0,29.93,North,7,21.0,35.0,93,-99.99,,,-99.99,,2016-09-26 10:57:00,
2016-09-26 07:07:00,61.0,59.0,29.93,North,7,17.0,26.0,93,-99.99,,,-99.99,,2016-09-26 11:07:00,
2016-09-26 07:15:00,61.0,59.0,29.95,North,7,13.0,24.0,92,-99.99,,,-99.99,,2016-09-26 11:15:00,
2016-09-26 08:06:00,61.0,58.0,29.96,North,7,9.0,11.0,90,-99.99,,,-99.99,,2016-09-26 12:06:00,
2016-09-26 08:15:00,61.0,58.0,29.95,North,7,8.0,14.0,91,-99.99,,,-99.99,,2016-09-26 12:15:00,
2016-09-26 08:25:00,61.0,58.0,29.95,North,6,4.0,10.0,91,-99.99,,,-99.99,,2016-09-26 12:25:00,
2016-09-26 08:36:00,61.0,58.0,29.96,North,6,6.0,18.0,91,-99.99,,,-99.99,,2016-09-26 12:36:00,
2016-09-26 08:46:00,61.0,59.0,29.98,North,6,0.0,11.0,92,-99.99,,,-99.99,,2016-09-26 12:46:00,
2016-09-26 08:55:00,61.0,59.0,29.99,North,6,6.0,6.0,92,-99.99,,,-99.99,,2016-09-26 12:55:00,
2016-09-26 09:06:00,61.0,59.0,29.99,North,6,7.0,11.0,92,-99.99,,,-99.99,,2016-09-26 13:06:00,